Date String (YYYY-MM-DD hh:mm:ss) UTC,Instrument flags,absolute air pressure of the measurement (hPa),sample flow rate (lpm),inlet stack bypass flow (lpm),air temperature of the measurement (°C),ambient temperature measured by the external sensor (°C),aerosol sample conditioner tube jacket temperature (°C),OPC LED temperature (°C),internal box temperature (°C),relative humidity of the measurement (%),span deviation,mass concentration of particles derived from Lorenz-Mie calculation of OPC scattering (μg/m³),mass concentration of particles derived from Lorenz-Mie calculation of OPC scattering (μg/m³),mass concentration of particles derived from Lorenz-Mie calculation of OPC scattering (μg/m³)
DateTimeUTC,F1_M11,P_M11,Q1_M11,Q2_M11,T1_M11,T2_M11,T3_M11,T4_M11,T5_M11,U1_M11,ZSPAN_M11,X0_M11,X2_M11,X1_M11
2023-10-07 22:00:00,SystemResetWarning,0835.3,5.00,000.00,028.4,026.2,000.0,036.9,030.0,13.9,0000.0,0005.72,0002.27,0001.87
2023-10-07 22:01:00,SystemResetWarning,0835.3,5.00,000.00,028.4,026.5,000.0,036.9,030.1,13.7,0000.0,0005.82,0002.28,0001.87
2023-10-07 22:02:00,SystemResetWarning,0835.3,5.00,000.00,028.5,026.8,000.0,036.9,030.2,13.5,0000.0,0005.57,0002.25,0001.86
2023-10-07 22:03:00,SystemResetWarning,0835.3,5.00,000.00,028.5,027.0,000.0,036.9,030.2,13.7,0000.0,0005.34,0002.29,0001.88
2023-10-07 22:04:00,SystemResetWarning,0835.3,4.99,000.00,028.5,027.2,000.0,036.9,030.3,13.9,0000.0,0004.26,0002.36,0001.88
2023-10-07 22:05:00,SystemResetWarning,0835.3,5.00,000.00,028.6,027.4,000.0,036.9,030.4,13.9,0000.0,0004.43,0002.40,0001.90
2023-10-07 22:06:00,SystemResetWarning,0835.3,5.00,000.00,028.6,027.6,000.0,036.9,030.4,13.7,0000.0,0005.33,0002.46,0001.91
2023-10-07 22:07:00,SystemResetWarning,0835.3,5.00,000.00,028.7,027.7,000.0,037.0,030.5,13.7,0000.0,0005.91,0002.46,0001.92
2023-10-07 22:08:00,SystemResetWarning,0835.2,5.00,000.00,028.7,027.4,000.0,037.0,030.5,13.7,0000.0,0005.99,0002.46,0001.92
2023-10-07 22:09:00,SystemResetWarning,0835.2,5.01,000.00,028.7,025.8,000.0,036.9,030.4,13.6,0000.0,0005.79,0002.44,0001.92
2023-10-07 22:10:00,SystemResetWarning,0835.2,5.01,000.00,028.6,025.3,000.0,036.9,030.3,13.7,0000.0,0005.86,0002.44,0001.91
2023-10-07 22:11:00,SystemResetWarning,0835.2,5.01,000.00,028.6,025.4,000.0,036.9,030.1,13.9,0000.0,0006.90,0002.45,0001.91
2023-10-07 22:12:00,SystemResetWarning,0835.1,5.00,000.00,028.5,025.7,000.0,036.9,030.1,14.0,0000.0,0007.16,0002.48,0001.93
2023-10-07 22:13:00,SystemResetWarning,0835.2,5.00,000.00,028.5,026.1,000.0,036.9,030.1,14.0,0000.0,0007.16,0002.47,0001.93
2023-10-07 22:14:00,SystemResetWarning,0835.2,5.00,000.00,028.5,026.4,000.0,036.9,030.2,13.9,0000.0,0007.15,0002.44,0001.92
2023-10-07 22:15:00,SystemResetWarning,0835.2,5.00,000.00,028.5,026.7,000.0,036.9,030.2,14.0,0000.0,0007.07,0002.39,0001.91
2023-10-07 22:16:00,SystemResetWarning,0835.2,5.00,000.00,028.6,027.0,000.0,037.0,030.3,14.0,0000.0,0007.71,0002.37,0001.90
2023-10-07 22:17:00,SystemResetWarning,0835.2,4.99,000.00,028.6,027.2,000.0,037.0,030.4,13.9,0000.0,0007.65,0002.36,0001.91
2023-10-07 22:18:00,SystemResetWarning,0835.2,5.00,000.00,028.7,027.4,000.0,037.0,030.4,13.8,0000.0,0007.41,0002.38,0001.92
2023-10-07 22:19:00,SystemResetWarning,0835.2,5.00,000.00,028.7,027.3,000.0,037.0,030.5,13.8,0000.0,0007.80,0002.40,0001.92
2023-10-07 22:20:00,SystemResetWarning,0835.2,5.01,000.00,028.7,025.7,000.0,037.0,030.3,13.7,0000.0,0007.91,0002.42,0001.92
2023-10-07 22:21:00,SystemResetWarning,0835.1,5.00,000.00,028.6,024.2,000.0,036.9,030.1,14.0,0000.0,0008.05,0002.46,0001.94
2023-10-07 22:22:00,SystemResetWarning,0835.1,5.02,000.00,028.5,024.2,000.0,036.8,029.9,14.0,0000.0,0007.94,0002.51,0001.96
2023-10-07 22:23:00,SystemResetWarning,0835.2,5.00,000.00,028.4,024.5,000.0,036.8,029.7,13.9,0000.0,0007.67,0002.49,0001.96
2023-10-07 22:24:00,SystemResetWarning,0835.1,5.01,000.00,028.3,025.0,000.0,036.8,029.8,13.9,0000.0,0007.72,0002.53,0001.97
2023-10-07 22:25:00,SystemResetWarning,0835.1,5.00,000.00,028.3,025.4,000.0,036.8,029.8,14.1,0000.0,0008.23,0002.58,0001.99
2023-10-07 22:26:00,SystemResetWarning,0835.2,4.99,000.00,028.3,025.8,000.0,036.8,029.9,14.2,0000.0,0008.77,0002.57,0002.00
2023-10-07 22:27:00,SystemResetWarning,0835.2,5.00,000.00,028.3,026.2,000.0,036.8,030.0,14.1,0000.0,0008.50,0002.59,0002.01
2023-10-07 22:28:00,SystemResetWarning,0835.2,5.00,000.00,028.4,026.5,000.0,036.8,030.0,13.9,0000.0,0008.00,0002.60,0002.03
2023-10-07 22:29:00,SystemResetWarning,0835.2,4.99,000.00,028.4,026.8,000.0,036.8,030.1,13.6,0000.0,0008.79,0002.58,0002.05
2023-10-07 22:30:00,SystemResetWarning,0835.2,4.99,000.00,028.4,027.0,000.0,036.8,030.2,13.7,0000.0,0008.96,0002.61,0002.05
2023-10-07 22:31:00,SystemResetWarning,0835.2,5.00,000.00,028.5,027.2,000.0,036.8,030.2,13.9,0000.0,0008.97,0002.60,0002.05
2023-10-07 22:32:00,SystemResetWarning,0835.2,5.00,000.00,028.5,027.4,000.0,036.8,030.3,13.7,0000.0,0008.97,0002.59,0002.04
2023-10-07 22:33:00,SystemResetWarning,0835.2,5.00,000.00,028.6,027.5,000.0,036.9,030.4,13.7,0000.0,0008.82,0002.59,0002.03
2023-10-07 22:34:00,SystemResetWarning,0835.2,5.01,000.00,028.6,027.6,000.0,036.9,030.4,13.7,0000.0,0008.85,0002.60,0002.03
2023-10-07 22:35:00,SystemResetWarning,0835.2,4.99,000.00,028.6,026.8,000.0,036.9,030.4,13.9,0000.0,0008.77,0002.56,0002.02
2023-10-07 22:36:00,SystemResetWarning,0835.2,5.00,000.00,028.6,024.8,000.0,036.8,030.1,14.2,0000.0,0008.46,0002.57,0002.01
2023-10-07 22:37:00,SystemResetWarning,0835.2,5.02,000.00,028.5,024.1,000.0,036.8,030.0,13.9,0000.0,0007.72,0002.58,0001.99
2023-10-07 22:38:00,SystemResetWarning,0835.2,5.00,000.00,028.4,024.4,000.0,036.7,029.8,13.8,0000.0,0007.87,0002.58,0001.98
2023-10-07 22:39:00,SystemResetWarning,0835.2,5.00,000.00,028.3,024.8,000.0,036.8,029.7,13.9,0000.0,0007.96,0002.62,0001.96
2023-10-07 22:40:00,SystemResetWarning,0835.2,5.00,000.00,028.3,025.2,000.0,036.8,029.8,13.9,0000.0,0006.83,0002.68,0001.94
2023-10-07 22:41:00,SystemResetWarning,0835.2,5.00,000.00,028.3,025.7,000.0,036.8,029.8,14.0,0000.0,0006.04,0002.61,0001.94
2023-10-07 22:42:00,SystemResetWarning,0835.2,5.00,000.00,028.3,026.0,000.0,036.8,029.9,13.8,0000.0,0005.62,0002.60,0001.93
2023-10-07 22:43:00,SystemResetWarning,0835.2,5.00,000.00,028.3,026.4,000.0,036.8,030.0,13.7,0000.0,0005.35,0002.57,0001.92
2023-10-07 22:44:00,SystemResetWarning,0835.2,5.00,000.00,028.3,026.7,000.0,036.8,030.1,13.7,0000.0,0005.79,0002.55,0001.93
2023-10-07 22:45:00,SystemResetWarning,0835.2,4.99,000.00,028.4,026.9,000.0,036.8,030.1,13.8,0000.0,0005.74,0002.55,0001.93
2023-10-07 22:46:00,SystemResetWarning,0835.2,4.99,000.00,028.4,027.1,000.0,036.8,030.2,13.8,0000.0,0006.05,0002.57,0001.92
2023-10-07 22:47:00,SystemResetWarning,0835.1,5.00,000.00,028.5,027.3,000.0,036.8,030.2,13.8,0000.0,0006.74,0002.56,0001.91
2023-10-07 22:48:00,SystemResetWarning,0835.2,5.00,000.00,028.5,027.5,000.0,036.8,030.3,13.8,0000.0,0007.31,0002.57,0001.91
2023-10-07 22:49:00,SystemResetWarning,0835.2,5.00,000.00,028.6,027.6,000.0,036.8,030.4,13.7,0000.0,0006.99,0002.56,0001.92
2023-10-07 22:50:00,SystemResetWarning,0835.2,4.99,000.00,028.6,027.7,000.0,036.9,030.4,13.6,0000.0,0007.27,0002.53,0001.92
2023-10-07 22:51:00,SystemResetWarning,0835.2,4.98,000.00,028.6,026.9,000.0,036.9,030.4,13.6,0000.0,0007.38,0002.55,0001.93
2023-10-07 22:52:00,SystemResetWarning,0835.2,5.01,000.00,028.6,024.9,000.0,036.8,030.1,13.5,0000.0,0007.39,0002.59,0001.94
2023-10-07 22:53:00,SystemResetWarning,0835.1,5.00,000.00,028.5,024.2,000.0,036.8,030.0,13.6,0000.0,0007.74,0002.65,0001.95
2023-10-07 22:54:00,SystemResetWarning,0835.2,5.02,000.00,028.4,024.4,000.0,036.7,029.8,14.0,0000.0,0008.29,0002.67,0001.95
2023-10-07 22:55:00,SystemResetWarning,0835.1,4.99,000.00,028.3,024.8,000.0,036.7,029.7,14.0,0000.0,0008.10,0002.72,0001.95
2023-10-07 22:56:00,SystemResetWarning,0835.1,4.99,000.00,028.3,025.3,000.0,036.7,029.8,13.9,0000.0,0008.10,0002.76,0001.95
2023-10-07 22:57:00,SystemResetWarning,0835.1,5.00,000.00,028.3,025.7,000.0,036.7,029.9,13.9,0000.0,0008.22,0002.83,0001.96
2023-10-07 22:58:00,SystemResetWarning,0835.1,5.01,000.00,028.3,026.1,000.0,036.7,029.9,13.9,0000.0,0008.04,0002.87,0001.97
2023-10-07 22:59:00,SystemResetWarning,0835.1,5.01,000.00,028.3,026.5,000.0,036.7,030.0,14.2,0000.0,0007.55,0002.89,0001.98
